Regional Weather Roundup
Issued by NWS Wakefield, VA

Home | Current Version | Previous Version | Graphics & Text | Print | Product List | Glossary On
Versions: 1 2 3 4 5 6 7 8 9 10 11 12 13 14 15 16 17 18 19 20 21 22 23 24 25 26 27 28
000
ASUS41 KAKQ 231015
RWRAKQ

REGIONAL WEATHER ROUNDUP
NATIONAL WEATHER SERVICE WAKEFIELD VA
500 AM EST THU NOV 23 2017

Note: "fair" indicates few or no clouds below 12,000 feet with no
significant weather and/or obstructions to visibility. * = Denotes
station may not report precipitation (e.g., rain,snow,etc.),
thunder or fog.

VAZ042-051-052>054-056-231100-
NORTHERN VIRGINIA

CITY           SKY/WX    TMP DP  RH WIND       PRES   REMARKS
WASH NATIONAL  PTCLDY    32  23  69 N7        30.19R
DULLES         CLOUDY    27  21  78 W3        30.17S
FORT BELVOIR   CLEAR     26  23  87 CALM      30.18R
QUANTICO       CLOUDY    29  24  82 N6        30.19F
FREDERICKSBRG* MOCLDY    28  27  94 CALM      30.17S
STAFFORD*      CLOUDY    23  23 100 N6        30.21S
WARRENTON      NOT AVBL
CULPEPER*      CLOUDY    24  20  85 CALM      30.18R
MANASSAS*      CLOUDY    21  18  88 CALM      30.19R
LEESBURG*      CLOUDY    30  27  86 NW3       30.18R
WINCHESTER     CLOUDY    27  19  74 CALM      30.16S
FRONT ROYAL*   CLOUDY    23  21  93 MISG      30.16R
LURAY*         CLOUDY    23  23 100 CALM      30.15S
$$

VAZ048-049-060>072-079>083-231100-
CENTRAL AND SOUTH CENTRAL VIRGINIA

CITY           SKY/WX    TMP DP  RH WIND       PRES   REMARKS
RICHMOND       PTCLDY    32  24  72 N5        30.17S
CHESTERFIELD*  NOT AVBL
PETERSBURG*    PTCLDY    27  16  63 CALM      30.18R
HANOVER        CLOUDY    29  25  85 CALM      30.18S
TAPPAHANNOCK*    N/A    N/A N/A N/A MISG        N/A
QUINTON*       FAIR      32  24  72 CALM      30.17S
CHARLOTTSVILLE CLOUDY    28  23  81 CALM      30.15R
GORDONSVILLE*  CLOUDY    22  21  96 MISG      30.16R
ORANGE*        CLOUDY    23  21  93 CALM      30.17R
LOUISA*        CLOUDY    22  20  91 CALM      30.20R
BUMPASS*       FAIR      26  23  87 CALM      30.16R
FARMVILLE*     CLOUDY    27  27 100 CALM      30.16R
CREWE*         FAIR      27  27 100 CALM      30.16R
FORT PICKETT*  FAIR      29  27  93 CALM      30.16S
CHASE CITY*    FAIR      32  25  74 CALM      30.15F
CLARKSVILLE*   FAIR      34  28  80 CALM      30.16S
SOUTH HILL*    CLOUDY    32  28  84 N3        30.21F
LAWRENCEVILLE* FAIR      31  26  80 CALM      30.16S
EMPORIA*       CLOUDY    30  28  93 CALM      30.18S
$$

VAZ088>098-231100-
SOUTHEAST VIRGINIA

CITY           SKY/WX    TMP DP  RH WIND       PRES   REMARKS
NORFOLK        PTCLDY    42  32  67 N10       30.13F
VIRGINIA BEACH CLOUDY    40  31  70 NE8       30.12F
NORFOLK NAVAL  PTCLDY    40  30  67 N13       30.15F
WEST POINT*    CLOUDY    32  24  72 CALM      30.19S
SALUDA*        FAIR      37  29  73 N7        30.16S
NEWPORT NEWS   PTCLDY    34  27  75 N5        30.16S
LANGLEY AFB    PTCLDY    36  28  73 NW6       30.14F
FORT EUSTIS    CLOUDY    37  27  66 N6        30.13F
WILLIAMSBURG*  CLOUDY    36  28  75 CALM      30.17S
HR EXEC AP*    NOT AVBL
FRANKLIN*      CLOUDY    31  27  83 CALM      30.16S
US460-WAKEFLD  CLOUDY    33  26  75 N5        30.16S
$$

VAZ020-022-025-037-045-231100-
WEST CENTRAL AND SOUTHWEST VIRGINIA

CITY           SKY/WX    TMP DP  RH WIND       PRES   REMARKS
STAUNTON*      CLOUDY    18  16  91 CALM      30.15S
WAYNESBORO*    CLOUDY    22  19  87 CALM      30.12S
HOT SPRINGS VA CLOUDY    24  19  82 W13       30.02R WCI  12
LYNCHBURG      CLOUDY    24  21  88 CALM      30.14S
DANVILLE       PTCLDY    28  26  92 CALM      30.15F
SOUTH BOSTON*  FAIR      28  26  93 CALM      30.16F
MARTINSVILLE   CLOUDY    26  23  88 CALM      30.17S
ROANOKE        CLOUDY    31  23  72 CALM      30.16R
BLACKSBURG     CLOUDY    23  22  93 CALM      30.13S
DUBLIN*        CLOUDY    24  22  91 CALM      30.12S
MARION*        CLOUDY    22  18  87 CALM      30.11F
HILLSVILLE*    CLOUDY    26  23  89 CALM      30.06F
RICHLANDS*     FAIR      25  22  91 E3        30.09R
WISE*          CLOUDY    28  27  93 CALM      30.08F
ABINGDON*      CLOUDY    28  24  86 CALM      30.10S
$$

MDZ021>025-VAZ099-100-231100-
SOUTHERN MARYLAND AND THE DELMARVA PENINSULA

CITY           SKY/WX    TMP DP  RH WIND       PRES   REMARKS
PATUXENT RIVER PTCLDY    35  25  66 N13       30.16F
BAY BRIDGE APT CLEAR     36  25  64 NW9       30.17R
LEONARDTOWN    CLOUDY    30  27  86 CALM      30.18S
DOVER          CLEAR     31  26  80 NW7       30.15S
GEORGETOWN     CLOUDY    30  24  78 CALM      30.15S
EASTON         CLEAR     32  25  74 CALM      30.20R
CAMBRIDGE      CLEAR     32  27  80 CALM      30.16S
SALISBURY      CLOUDY    32  25  75 CALM      30.15S
OCEAN CITY     CLOUDY    33  25  72 NW7       30.15S
WALLOPS ISLAND MOCLDY    34  26  72 NW3       30.16S
ACCOMACK*      CLEAR     34  28  78 NE3       30.15S
$$

NCZ012>017-030>032-231100-
NORTH CENTRAL AND EASTERN NORTH CAROLINA

CITY           SKY/WX    TMP DP  RH WIND       PRES   REMARKS
ROANOKE RAPIDS FAIR      32  30  93 N5        30.16S
RALEIGH        CLOUDY    33  27  78 CALM      30.15S
ELIZABETH CITY CLOUDY    40  33  76 N13       30.13S
AHOSKIE*       CLOUDY    34  27  75 N3        30.16S
EDENTON*       CLOUDY    37  32  84 CALM      30.14S
CURRITUCK*     CLOUDY    38  33  82 NW3       30.13S
KILL DEVIL HLS CLOUDY    46  36  66 N8        30.09S
MANTEO         CLOUDY    46  37  69 NE9       30.11R
CAPE HATTERAS  MOCLDY    51  41  68 VRB7      30.09S
TARBORO*       NOT AVBL
GOLDSBORO      CLOUDY    40  29  65 N7        30.13R
WASHINGTON     CLOUDY    37  31  79 N3        30.14S
GREENVILLE     PTCLDY    36  30  80 CALM      30.16R
NEW BERN       PTCLDY    39  34  82 N9        30.13S
WILMINGTON     PTCLDY    44  35  70 NE10      30.11S
$$

VAZ048-231100-
ELSEWHERE

CITY           SKY/WX    TMP DP  RH WIND       PRES   REMARKS
HARRISBURG PA  CLOUDY    31  19  61 CALM      30.13S
BALTIMORE      PTCLDY    29  23  78 CALM      30.16S
ANNAPOLIS      NOT AVBL
ANDREWS AFB    CLEAR     26  22  82 CALM      30.16R
PHILADELPHIA   CLEAR     32  18  56 NW6       30.15R
HENDERSON NC   CLOUDY    29  26  86 CALM      30.14F
GREENSBORO     PTCLDY    34  24  67 NE5       30.12F
ROCKY MOUNT    CLOUDY    35  31  85 N6        30.16R
$$

VAZ100-231100-
MARINE

STATION/POSITION TIME  TEMP    WIND        PRES    WAVE   SWELL
                       AIR SEA DIR/SP/G            HT/PER HT/PER
                 (UTC) (F)     (DEG/KT/KT) (MB)    (FT/S) (FT/S)
BRANDYWINE LGT   0942   38     350/ 16/ 22 1020.8R
CAPE MAY NJ      0948   37 49  350/  8/ 14 1020.0F
LEWES DE         0942   38 50  310/ 16/ 18 1020.2F
15NM E FENWICK I 0950   41 57  330/ 14/ 19 1020.1F   5/10   3/10
OCEAN-CITY-INLET 0942   36 52  340/  9/ 11 1021.0F
WACHAPREAGUE VA  0942   36 49   10/  3/  6 1021.0S
THOMAS POINT MD  1000   35 51  320/  9/ 11   N/A
GOOSES REEF MD   0950   39      10/ 14/ 19 1017.1S
COVE POINT MD    0942   38     350/ 17/ 21 1021.8F
SOLOMONS ISLAND  0942   36 53  340/  8/ 11 1021.1S
BISHOPS HEAD MD  0942   32 47  330/  5/  8 1021.4S
PINEY POINT MD   0942           10/ 12/ 13   N/A
POTOMAC MD       0950   38     340/ 12/ 14 1020.6S
CAMBRIDGE MD     0942   37 49              1022.2R
LEWISETTA VA     0942   38 50   20/ 12/ 16 1021.3F
RAPPAHANNOCK LGT 0942           10/ 16/ 20 1021.2S
STINGRAY PT      0950   40     360/ 12/ 16 1021.1F
YORK RVR RNG VA  0942   41     360/ 14/ 16 1021.3F
YORKTOWN VA      0942   38 54  330/  9/ 10 1020.9F
JAMESTOWN VA     0950          360/  4/  8   N/A
DOMINION TERM VA 0942   39      20/  2/  5 1021.1F
KIPTOPEKE VA     0942      53   40/  5/  9   N/A
CAPE HENRY VA    0942   43      10/ 15/ 19   N/A
WILLOUBY STN VA  0942   39     340/ 12/ 13 1020.6F
S CRANEY ISL VA  0942   40     350/ 14/ 17 1020.4F
CAPE HENRY BUOY  1000      59                N/A     4/ 9   2/11
1ST LANDING BUOY 0950   44      50/ 14/ 19 1020.4F
CAPE CHARLES BUO 0951      58                N/A     4/10   2/11
64NM E OF VA BCH 0950   48 61  350/ 14/ 17 1019.4S   7/ 8   5/ 8
DUCK PIER NC     0942   47 59   10/ 13/ 19 1018.7F
44100 DUCK FRF   0945      61                N/A     5/ 9   2/11
44056 DUCK FRF   1000      60                N/A     5/ 9   2/11
OREGON INLET NC  0942   49 59  360/ 11/ 14 1019.0S
HATTERAS NC      0942   51 59   20/ 15/ 18 1018.7R
DIAMOND SHLS NC  0950   56 72   10/ 16/ 21 1018.5R   7/ 9   5/ 9
CAPE LOOKOUT NC  1000           10/ 13/ 17 1019.1R
$$




USA.gov is the U.S. government's official web portal to all federal, state and local government web resources and services.